Weather in Utyanka

Russia / Altai Krai     53°35′57″N   79°27′33″E
temp.,
°C
wind,
m/s
gust,
m/s
humid.,
%
clouds,
%
prec.,
mm/h
press.,
hPa
HPBL,
m
21 june, mon
mon2101:00+13s81461100 0.1 1002917
04:00+11sse91680100 1.2 999772
07:00+12ssw81394100 7.6 997732
10:00+12w7107412 0.3 1001996
13:00+14wsw685522 0.3 10031594
16:00+14sw586199 0.1 10041254
19:00+12ssw5771100 0.3 1006712
22:00+9ssw1294100 2.6 1006136
22 june, tue
tue2201:00+9nw2395100 9.5 1005144
04:00+9nnw61097100 4.4 1004538
07:00+9nnw91496100 12.1 1004771
10:00+9nnw81296100 6.8 1006600
13:00+10nnw71294100 9.4 1008758
16:00+10nnw71192100 3.0 1011634
19:00+10nw41085100 3.2 1013401
22:00+10w488842 0.3 1014190
23 june, wed
wed2301:00+9wnw498885 0.3 1014203
04:00+8wnw2288100 0.0 101428
07:00+9ssw2488100 0.2 1014142
10:00+12wsw457190 1.3 1012567
13:00+15wsw4659100 2.3 10111506
16:00+13sw5672100 0.6 1011655
19:00+10e2391100 3.5 1010184
22:00+9ne5795100 4.1 1007323
24 june, thu
thu2401:00+9nne71197100 12.1 1004539
04:00+9n91497100 8.1 1001718
07:00+9nnw91495100 13.8 1001777
10:00+9nnw81195100 3.7 1002745
13:00+9nw81296100 7.7 1004738
16:00+10wnw61196100 3.1 1005693
19:00+10nw71394100 5.9 1007789
22:00+10wnw51191100 0.6 1009504
25 june, fri
fri2501:00+10w4892100 0.8 1009174
04:00+8wnw4995100 0.0 1009195
07:00+9wnw4993100 0.0 1010302
10:00+12nw6782100 0.0 1011740
13:00+10wnw51089100 1.6 1012759
16:00+14nw5976100 0.3 10111146
19:00+14nnw4675100 0.7 1012869
22:00+11wnw228665 0.2 101219